Location: Carri�res
(48.9069°N, 2.1792°E)
Time: 13:44:56
(UTC+00:00)

Cosmos 2263 Rocket - Pass Details

Date: 17 January 2021
Orbit: 825 x 847 km, 71.0° (Epoch: 25 February)

Event Time Altitude Azimuth Distance (km) Brightness Sun altitude
Rises 18:03:56 0° 209° (SSW) 3,397 6.0 -15.7°
Reaches altitude 10° 18:06:22 10° 211° (SSW) 2,465 5.2 -16.1°
Maximum altitude 18:12:03 81° 299° (WNW) 861 2.3 -17.0°
Enters shadow 18:17:07 13° 26° (NNE) 2,240 4.1 -17.9°
